| time (UTC) | temp F | wind direction | speed MPH | gust MPH | rain 1hr in | rain 24hr in | rain mn in | humidity % | barometer mb |
| 20260906211513 | 89 | 231 | 9.0 | 15.0 | 0.00 | 0.00 | 0.00 | 30 | 1001.6 |
| 20260906210019 | 88 | 230 | 11.0 | 18.0 | 0.00 | 0.00 | 0.00 | 28 | 1001.6 |
| 20260906204511 | 89 | 230 | 10.0 | 15.0 | 0.00 | 0.00 | 0.00 | 27 | 1001.9 |
| 20260906203006 | 88 | 230 | 9.0 | 14.0 | 0.00 | 0.00 | 0.00 | 29 | 1002.0 |
| 20260906201505 | 88 | 230 | 11.0 | 17.0 | 0.00 | 0.00 | 0.00 | 31 | 1001.8 |
| 20260906200003 | 88 | 231 | 10.0 | 16.0 | 0.00 | 0.00 | 0.00 | 29 | 1002.0 |
| 20260906194502 | 88 | 230 | 8.0 | 15.0 | 0.00 | 0.00 | 0.00 | 30 | 1002.3 |
| 20260906193057 | 87 | 230 | 9.0 | 14.0 | 0.00 | 0.00 | 0.00 | 32 | 1002.6 |
| 20260906191610 | 86 | 230 | 8.0 | 12.0 | 0.00 | 0.00 | 0.00 | 34 | 1002.9 |
| 20260906190053 | 86 | 230 | 7.0 | 11.0 | 0.00 | 0.00 | 0.00 | 32 | 1003.3 |
| 20260906184558 | 86 | 231 | 4.0 | 7.0 | 0.00 | 0.00 | 0.00 | 35 | 1003.5 |
| 20260906183047 | 85 | 231 | 5.0 | 8.0 | 0.00 | 0.00 | 0.00 | 35 | 1003.8 |
| 20260906181543 | 84 | 232 | 4.0 | 11.0 | 0.00 | 0.00 | 0.00 | 38 | 1004.0 |
| 20260906180056 | 83 | 231 | 3.0 | 7.0 | 0.00 | 0.00 | 0.00 | 34 | 1004.1 |
| 20260906174539 | 81 | 230 | 2.0 | 7.0 | 0.00 | 0.00 | 0.00 | 42 | 1004.4 |
| 20260906173032 | 80 | 230 | 2.0 | 7.0 | 0.00 | 0.00 | 0.00 | 47 | 1004.6 |
| 20260906171528 | 79 | 230 | 3.0 | 7.0 | 0.00 | 0.00 | 0.00 | 51 | 1004.9 |
| 20260906170025 | 76 | 230 | 4.0 | 7.0 | 0.00 | 0.00 | 0.00 | 58 | 1005.1 |
| 20260906164522 | 75 | 230 | 5.0 | 8.0 | 0.00 | 0.00 | 0.00 | 59 | 1005.4 |
| 20260906163018 | 74 | 230 | 4.0 | 7.0 | 0.00 | 0.00 | 0.00 | 61 | 1005.6 |
| 20260906161516 | 73 | 230 | 1.0 | 5.0 | 0.00 | 0.00 | 0.00 | 62 | 1005.8 |
| 20260906160013 | 72 | 230 | 1.0 | 4.0 | 0.00 | 0.00 | 0.00 | 63 | 1006.0 |
| 20260906154511 | 71 | 230 | 2.0 | 6.0 | 0.00 | 0.00 | 0.00 | 65 | 1006.1 |
| 20260906153016 | 70 | 230 | 1.0 | 5.0 | 0.00 | 0.00 | 0.00 | 66 | 1006.2 |
| 20260906151508 | 68 | 231 | 2.0 | 5.0 | 0.00 | 0.00 | 0.00 | 70 | 1006.1 |
| 20260906150008 | 68 | 230 | 0.0 | 0.0 | 0.00 | 0.00 | 0.00 | 69 | 1006.3 |
| 20260906144513 | 69 | 230 | 0.0 | 0.0 | 0.00 | 0.00 | 0.00 | 70 | 1006.5 |
| 20260906143009 | 66 | 230 | 0.0 | 0.0 | 0.00 | 0.00 | 0.00 | 75 | 1006.8 |
| 20260906141508 | 63 | 230 | 0.0 | 0.0 | 0.00 | 0.00 | 0.00 | 78 | 1006.8 |
| 20260906140006 | 62 | 230 | 0.0 | 4.0 | 0.00 | 0.00 | 0.00 | 79 | 1007.0 |
| 20260906134504 | 60 | 230 | 0.0 | 0.0 | 0.00 | 0.00 | 0.00 | 82 | 1007.0 |
| 20260906133002 | 58 | 230 | 3.0 | 6.0 | 0.00 | 0.00 | 0.00 | 83 | 1007.0 |
| 20260906131615 | 57 | 230 | 0.0 | 0.0 | 0.00 | 0.00 | 0.00 | 86 | 1006.8 |
| 20260906130107 | 56 | 230 | 0.0 | 0.0 | 0.00 | 0.00 | 0.00 | 87 | 1006.8 |
| 20260906124557 | 56 | 230 | 0.0 | 0.0 | 0.00 | 0.00 | 0.00 | 87 | 1006.5 |
| 20260906123056 | 57 | 230 | 0.0 | 0.0 | 0.00 | 0.00 | 0.00 | 86 | 1006.5 |
| 20260906121553 | 56 | 230 | 0.0 | 0.0 | 0.00 | 0.00 | 0.00 | 89 | 1006.3 |
| 20260906120058 | 56 | 230 | 0.0 | 0.0 | 0.00 | 0.00 | 0.00 | 86 | 1006.3 |
| 20260906114546 | 57 | 230 | 0.0 | 0.0 | 0.00 | 0.00 | 0.00 | 84 | 1005.9 |
| 20260906113043 | 58 | 230 | 0.0 | 0.0 | 0.00 | 0.00 | 0.00 | 82 | 1006.0 |
| 20260906111541 | 59 | 230 | 0.0 | 0.0 | 0.00 | 0.00 | 0.00 | 81 | 1006.0 |
| 20260906110037 | 60 | 230 | 0.0 | 0.0 | 0.00 | 0.00 | 0.00 | 80 | 1006.0 |
| 20260906104538 | 60 | 230 | 0.0 | 0.0 | 0.00 | 0.00 | 0.00 | 79 | 1006.0 |
| 20260906103034 | 60 | 231 | 0.0 | 1.0 | 0.00 | 0.00 | 0.00 | 80 | 1005.9 |
| 20260906101532 | 60 | 230 | 0.0 | 2.0 | 0.00 | 0.00 | 0.00 | 78 | 1005.8 |
| 20260906100030 | 61 | 230 | 0.0 | 0.0 | 0.00 | 0.00 | 0.00 | 79 | 1005.8 |
| 20260906094626 | 62 | 230 | 1.0 | 4.0 | 0.00 | 0.00 | 0.00 | 76 | 1005.6 |
| 20260906093031 | 64 | 230 | 0.0 | 0.0 | 0.00 | 0.00 | 0.00 | 76 | 1005.6 |
| 20260906091523 | 63 | 230 | 0.0 | 0.0 | 0.00 | 0.00 | 0.00 | 77 | 1005.6 |
| 20260906090023 | 63 | 230 | 0.0 | 5.0 | 0.00 | 0.00 | 0.00 | 77 | 1005.7 |
| 20260906084521 | 63 | 230 | 2.0 | 6.0 | 0.00 | 0.00 | 0.00 | 77 | 1005.6 |
| 20260906083023 | 63 | 230 | 3.0 | 5.0 | 0.00 | 0.00 | 0.00 | 77 | 1005.7 |
| 20260906081525 | 63 | 230 | 0.0 | 6.0 | 0.00 | 0.00 | 0.00 | 76 | 1005.5 |
| 20260906080016 | 64 | 231 | 0.0 | 0.0 | 0.00 | 0.00 | 0.00 | 75 | 1005.1 |
| 20260906074514 | 65 | 231 | 0.0 | 4.0 | 0.00 | 0.00 | 0.00 | 74 | 1005.2 |
| 20260906073010 | 65 | 231 | 0.0 | 0.0 | 0.00 | 0.00 | 0.00 | 73 | 1005.5 |
| 20260906071507 | 66 | 230 | 0.0 | 2.0 | 0.00 | 0.00 | 0.00 | 70 | 1005.3 |
| 20260906070003 | 67 | 231 | 0.0 | 0.0 | 0.00 | 0.00 | 0.00 | 66 | 1005.1 |
| 20260906064559 | 69 | 230 | 0.0 | 0.0 | 0.00 | 0.00 | 0.00 | 63 | 1005.1 |
| 20260906063057 | 70 | 230 | 2.0 | 5.0 | 0.00 | 0.00 | 0.00 | 63 | 1005.0 |
| 20260906061556 | 69 | 230 | 0.0 | 4.0 | 0.00 | 0.00 | 0.00 | 64 | 1005.1 |
| 20260906060100 | 70 | 230 | 0.0 | 3.0 | 0.00 | 0.00 | 0.00 | 63 | 1005.1 |
| 20260906054553 | 69 | 230 | 0.0 | 0.0 | 0.00 | 0.00 | 0.00 | 64 | 1005.2 |
| 20260906053052 | 70 | 231 | 1.0 | 3.0 | 0.00 | 0.00 | 0.00 | 63 | 1005.3 |
| 20260906051555 | 72 | 231 | 0.0 | 6.0 | 0.00 | 0.00 | 0.00 | 59 | 1005.4 |
| 20260906050053 | 73 | 231 | 4.0 | 8.0 | 0.00 | 0.00 | 0.00 | 58 | 1005.6 |
| 20260906044550 | 74 | 230 | 3.0 | 8.0 | 0.00 | 0.00 | 0.00 | 54 | 1005.9 |
| 20260906043048 | 75 | 230 | 5.0 | 14.0 | 0.00 | 0.00 | 0.00 | 52 | 1006.0 |
| 20260906041549 | 75 | 231 | 4.0 | 11.0 | 0.00 | 0.00 | 0.00 | 49 | 1005.9 |
| 20260906040049 | 76 | 231 | 5.0 | 13.0 | 0.00 | 0.00 | 0.00 | 48 | 1005.8 |
| 20260906034546 | 75 | 230 | 4.0 | 7.0 | 0.00 | 0.00 | 0.00 | 47 | 1005.7 |
| 20260906033045 | 75 | 230 | 3.0 | 8.0 | 0.00 | 0.00 | 0.00 | 45 | 1005.7 |
| 20260906031544 | 75 | 230 | 4.0 | 6.0 | 0.00 | 0.00 | 0.00 | 45 | 1005.9 |
| 20260906030045 | 76 | 230 | 2.0 | 6.0 | 0.00 | 0.00 | 0.00 | 43 | 1005.6 |
| 20260906024542 | 77 | 230 | 0.0 | 6.0 | 0.00 | 0.00 | 0.00 | 43 | 1005.4 |
| 20260906023045 | 78 | 230 | 1.0 | 8.0 | 0.00 | 0.00 | 0.00 | 40 | 1005.1 |
| 20260906021543 | 80 | 230 | 9.0 | 14.0 | 0.00 | 0.00 | 0.00 | 34 | 1004.7 |
| 20260906020041 | 81 | 230 | 0.0 | 0.0 | 0.00 | 0.00 | 0.00 | 27 | 1004.2 |
| 20260906014545 | 81 | 230 | 0.0 | 0.0 | 0.00 | 0.00 | 0.00 | 27 | 1004.0 |
| 20260906013040 | 81 | 230 | 0.0 | 0.0 | 0.00 | 0.00 | 0.00 | 29 | 1003.9 |
| 20260906011539 | 82 | 230 | 0.0 | 0.0 | 0.00 | 0.00 | 0.00 | 30 | 1003.9 |
| 20260906010039 | 83 | 230 | 0.0 | 4.0 | 0.00 | 0.00 | 0.00 | 28 | 1004.0 |
| 20260906004539 | 84 | 230 | 0.0 | 0.0 | 0.00 | 0.00 | 0.00 | 27 | 1003.9 |
| 20260906003037 | 84 | 230 | 0.0 | 4.0 | 0.00 | 0.00 | 0.00 | 28 | 1003.8 |
| 20260906001536 | 84 | 230 | 0.0 | 10.0 | 0.00 | 0.00 | 0.00 | 27 | 1003.6 |
| 20260906000039 | 84 | 231 | 1.0 | 7.0 | 0.00 | 0.00 | 0.00 | 31 | 1003.6 |
| 20260905234536 | 87 | 230 | 2.0 | 6.0 | 0.00 | 0.00 | 0.00 | 26 | 1003.6 |
| 20260905233042 | 88 | 231 | 1.0 | 6.0 | 0.00 | 0.00 | 0.00 | 26 | 1003.5 |
| 20260905231544 | 88 | 231 | 0.0 | 6.0 | 0.00 | 0.00 | 0.00 | 22 | 1003.6 |
| 20260905230034 | 88 | 230 | 0.0 | 7.0 | 0.00 | 0.00 | 0.00 | 22 | 1003.6 |
| 20260905224541 | 88 | 231 | 2.0 | 10.0 | 0.00 | 0.00 | 0.00 | 22 | 1003.5 |
| 20260905223032 | 89 | 230 | 0.0 | 5.0 | 0.00 | 0.00 | 0.00 | 21 | 1003.6 |
| 20260905221537 | 89 | 230 | 5.0 | 8.0 | 0.00 | 0.00 | 0.00 | 22 | 1003.7 |
| 20260905220030 | 88 | 230 | 0.0 | 5.0 | 0.00 | 0.00 | 0.00 | 22 | 1003.9 |
| 20260905214529 | 87 | 230 | 7.0 | 12.0 | 0.00 | 0.00 | 0.00 | 23 | 1004.1 |
| 20260905213033 | 87 | 231 | 8.0 | 11.0 | 0.00 | 0.00 | 0.00 | 26 | 1004.2 |